Showing default

TECHEDSAT-11, 60208

Orbit data source: Space-Track

TECHEDSAT-11, 60208 is an American payload satellite in SSO that was launched on Thu, 04 Jul 2024 UTC via an FIREFLY ALPHA launch vehicle from the Air Force Western Test Range (AFWTR). Payloads include a variety of satellites, spacecraft, and rockets equipped with specific instruments for various scientific and technological missions. These include communications satellites like Starlink; space stations such as the ISS; scientific satellites like the Hubble; Earth observation satellites from companies like Planet Labs, Umbra, and HawkEye 360; GPS; miniature CubeSats for education and research; and military/defense satellites.

Loading next visibility...
TECHEDSAT-11 details
Identifier
60208, 2024-125F
Orbit
SSO
Last TLE update11 hours ago
Origin
Flag of USARC/SJSU (US)
ManufacturerARC
MissionOperational spacecraft
Bus & MotorCUBESAT 6UXL, Unknown motor
Mass10 kg wet, ~10 kg dry
Launch date (UTC)
2024-07-04 (7 months ago)
Launch vehicle
FIREFLY ALPHA
Launch site
Air Force Western Test Range (AFWTR)
Object type
Payload
Rocket body
Debris
Shape & HBRUnknown
Radar Cross SectionSmall (<0.1 m²)

Expand to show TLE details & history

TLE from 11 hours ago
0 TECHEDSAT-11
1 60208U 24125F   25045.15255922  .00019289  00000-0  69687-3 0  9995
2 60208  97.2944 258.2225 0022648 181.6651 178.4517 15.28264156 34267
Epoch: 2025-02-14T03:39Z
Definitive object data (Epoch: 2025-02-14T03:39:41.116Z)
Latitude-0.00007°
Longitude58.88277°
Altitude499.638 km
Speed7.606 km/s
True Right ascension17h 12m 53s
True Declination0° 00' 00"
Sunlit
Object was in daylight at TLE epoch
Visualization TLE readout
Latitude-29.92585°
Longitude63.5284°
Altitude505.716 km
Speed7.602 km/s
Apparent Right ascension18h 59m 37s
Apparent Declination-81° 03' 27"
Sunlit
Object is in daylight
Visualization observer readout
Local Sidereal Time17:10:45
Azimuth175.198° S
Elevation-31.86°
Doppler factor1
Orbital elements
Apogee altitude493.479 km
Perigee altitude462.424 km
Semi-major axis6,856.088 km
Eccentricity0.0022648
Inclination97.2944°
RAAN258.2225°
Arg. of periapsis181.6651°
True anomaly178.45869°
Mean anomaly178.4517°
Eccentric anomaly178.4552°
Mean motion3.82321 °/min
BSTAR0.00069687
Orbital period94.16 mins
Loading maneuver chart data...
Loading historical data...
Loading historical data...
Loading historical data...
Loading historical data...
Loading historical data...
Loading historical data...
Loading historical data...

TECHEDSAT-11 Visibility forecast

Observer location: undefined°, undefined

Span
Click to sort rows by Start time (UTC) header in descending order
Start Az.
Max El. time (UTC)
Max El. Az.
Max El.
End time (UTC)
End Az.
5 mins2025-02-14 14:47:46.597Z215.072° SW2025-02-14 14:49:46.597Z259.127° W23.817°2025-02-14 14:52:46.597Z320.398° NNW
5 mins2025-02-15 14:22:46.597Z191.82° SSW2025-02-15 14:24:46.597Z291.768° WNW38.869°2025-02-15 14:27:46.597Z339.64° N
|